Time,TemperatureF,DewpointF,PressureIn,WindDirection,WindDirectionDegrees,WindSpeedMPH,WindSpeedGustMPH,Humidity,HourlyPrecipIn,Conditions,Clouds,dailyrainin,SoftwareType,DateUTC
2013-05-19 00:00:00,56.1,51.0,30.30,NW,315,0.0,0.0,83,0.00,,OVC090,0.00,VWS V14.01,2013-05-19 04:00:00,
2013-05-19 00:01:00,56.1,51.0,30.30,NW,315,0.0,0.0,83,0.00,,OVC090,0.00,VWS V14.01,2013-05-19 04:01:00,
2013-05-19 00:02:00,56.1,51.0,30.30,NW,315,0.0,0.0,83,0.00,,OVC090,0.00,VWS V14.01,2013-05-19 04:02:00,
2013-05-19 00:07:00,56.1,50.7,30.30,NW,315,0.0,0.0,82,0.00,,OVC090,0.00,VWS V14.01,2013-05-19 04:07:00,
2013-05-19 00:12:00,55.9,50.5,30.33,NW,315,0.0,0.0,82,0.00,,OVC090,0.00,VWS V14.01,2013-05-19 04:12:00,
2013-05-19 00:17:00,55.8,50.4,30.33,NW,315,0.0,0.0,82,0.00,,OVC090,0.00,VWS V14.01,2013-05-19 04:17:00,
2013-05-19 00:22:00,55.4,50.0,30.33,NW,315,0.0,0.0,82,0.00,,OVC090,47.27,VWS V14.01,2013-05-19 04:22:00,
2013-05-19 00:27:00,55.2,49.8,30.33,NW,315,0.0,0.0,82,0.00,,OVC090,47.27,VWS V14.01,2013-05-19 04:27:00,
2013-05-19 00:32:00,54.9,49.8,30.33,NW,315,0.0,0.0,83,0.00,,OVC090,47.27,VWS V14.01,2013-05-19 04:32:00,
2013-05-19 00:37:00,54.7,49.6,30.33,NW,315,0.0,0.0,83,0.00,,OVC090,47.27,VWS V14.01,2013-05-19 04:37:00,
2013-05-19 00:42:00,54.5,49.5,30.33,NW,315,0.0,0.0,83,0.00,,OVC090,47.27,VWS V14.01,2013-05-19 04:42:00,
2013-05-19 00:47:00,54.5,49.5,30.33,NW,315,0.0,0.0,83,0.00,,OVC090,47.27,VWS V14.01,2013-05-19 04:47:00,
2013-05-19 00:52:00,54.3,49.6,30.33,NW,315,0.0,0.0,84,0.00,,BKN095,47.27,VWS V14.01,2013-05-19 04:52:00,
2013-05-19 00:57:00,54.1,49.4,30.33,NW,315,0.0,0.0,84,0.00,,BKN095,47.27,VWS V14.01,2013-05-19 04:57:00,
2013-05-19 01:02:00,54.1,49.4,30.33,NW,315,0.0,0.0,84,0.00,,BKN095,47.27,VWS V14.01,2013-05-19 05:02:00,
2013-05-19 01:07:00,54.0,49.2,30.33,NW,315,0.0,0.0,84,0.00,,BKN095,47.27,VWS V14.01,2013-05-19 05:07:00,
2013-05-19 01:12:00,54.0,49.2,30.30,NW,315,0.0,0.0,84,0.00,,BKN095,47.27,VWS V14.01,2013-05-19 05:12:00,
2013-05-19 01:17:00,54.0,49.2,30.30,NW,315,0.0,0.0,84,0.00,,BKN095,47.27,VWS V14.01,2013-05-19 05:17:00,
2013-05-19 01:22:00,53.8,49.4,30.33,NW,315,0.0,0.0,85,0.00,,BKN095,47.27,VWS V14.01,2013-05-19 05:22:00,
2013-05-19 01:28:00,53.8,49.4,30.33,NW,315,0.0,0.0,85,0.00,,BKN095,47.27,VWS V14.01,2013-05-19 05:28:00,
2013-05-19 01:33:00,54.0,49.6,30.33,NW,315,0.0,0.0,85,0.00,,BKN095,47.27,VWS V14.01,2013-05-19 05:33:00,
2013-05-19 01:38:00,54.0,49.6,30.33,NW,315,0.0,0.0,85,0.00,,BKN095,47.27,VWS V14.01,2013-05-19 05:38:00,
2013-05-19 01:43:00,54.1,49.7,30.33,NW,315,0.0,0.0,85,0.00,,BKN095,47.27,VWS V14.01,2013-05-19 05:43:00,
2013-05-19 01:48:00,54.3,50.2,30.33,NW,315,0.0,0.0,86,0.00,,BKN095,47.27,VWS V14.01,2013-05-19 05:48:00,
2013-05-19 01:53:00,54.5,50.7,30.33,NW,315,0.0,0.0,87,0.00,,OVC065,47.27,VWS V14.01,2013-05-19 05:53:00,
2013-05-19 01:58:00,54.5,50.4,30.33,NW,315,0.0,0.0,86,0.00,,OVC065,47.27,VWS V14.01,2013-05-19 05:58:00,
2013-05-19 02:03:00,54.7,50.9,30.33,NNW,338,0.0,0.0,87,0.00,,OVC065,47.27,VWS V14.01,2013-05-19 06:03:00,
2013-05-19 02:08:00,54.9,50.8,30.33,NNW,338,0.0,0.0,86,0.00,,OVC065,47.27,VWS V14.01,2013-05-19 06:08:00,
2013-05-19 02:13:00,54.9,51.1,30.33,SSW,202,0.0,0.0,87,0.00,,OVC065,47.27,VWS V14.01,2013-05-19 06:13:00,
2013-05-19 02:18:00,54.9,51.1,30.33,NW,315,0.0,0.0,87,0.00,,OVC065,47.27,VWS V14.01,2013-05-19 06:18:00,
2013-05-19 02:23:00,55.0,50.9,30.33,SSE,158,0.0,0.0,86,0.00,,OVC065,47.27,VWS V14.01,2013-05-19 06:23:00,
2013-05-19 02:28:00,55.0,50.9,30.33,North,0,0.0,0.0,86,0.00,,OVC065,47.27,VWS V14.01,2013-05-19 06:28:00,
2013-05-19 02:33:00,55.2,51.1,30.33,NW,315,0.0,0.0,86,0.00,,OVC065,47.27,VWS V14.01,2013-05-19 06:33:00,
2013-05-19 02:38:00,55.2,51.1,30.33,WNW,292,0.0,0.0,86,0.00,,OVC065,47.27,VWS V14.01,2013-05-19 06:38:00,
2013-05-19 02:43:00,55.4,51.0,30.33,WNW,292,0.0,0.0,85,0.00,,OVC065,47.27,VWS V14.01,2013-05-19 06:43:00,
2013-05-19 02:48:00,55.6,51.2,30.33,SW,225,0.0,0.0,85,0.00,,OVC065,47.27,VWS V14.01,2013-05-19 06:48:00,
2013-05-19 02:53:00,55.6,51.2,30.33,SSW,202,0.0,0.0,85,0.00,,OVC024,47.27,VWS V14.01,2013-05-19 06:53:00,
2013-05-19 02:58:00,55.6,50.8,30.33,East,90,0.0,0.0,84,0.00,,OVC024,47.27,VWS V14.01,2013-05-19 06:58:00,
2013-05-19 03:04:00,55.6,50.8,30.33,ENE,68,0.0,0.0,84,0.00,,OVC024,47.27,VWS V14.01,2013-05-19 07:04:00,
2013-05-19 03:09:00,55.8,51.0,30.33,NE,45,0.0,0.0,84,0.00,,OVC024,47.27,VWS V14.01,2013-05-19 07:09:00,
2013-05-19 03:14:00,55.8,51.0,30.33,North,0,0.0,0.0,84,0.00,,OVC024,47.27,VWS V14.01,2013-05-19 07:14:00,
2013-05-19 03:19:00,55.8,50.7,30.33,North,0,0.0,0.0,83,0.00,,OVC024,47.27,VWS V14.01,2013-05-19 07:19:00,
2013-05-19 03:24:00,55.8,50.7,30.33,NW,315,0.0,0.0,83,0.00,,OVC024,47.27,VWS V14.01,2013-05-19 07:24:00,
2013-05-19 03:29:00,55.8,50.7,30.33,ENE,68,0.0,0.0,83,0.00,,OVC024,47.27,VWS V14.01,2013-05-19 07:29:00,
2013-05-19 03:34:00,55.9,50.9,30.33,ENE,68,0.0,0.0,83,0.00,,OVC024,47.27,VWS V14.01,2013-05-19 07:34:00,
2013-05-19 03:39:00,55.9,50.5,30.33,North,0,0.0,0.0,82,0.00,,OVC024,47.27,VWS V14.01,2013-05-19 07:39:00,
2013-05-19 03:44:00,55.9,50.5,30.33,North,0,0.0,0.0,82,0.00,,OVC024,47.27,VWS V14.01,2013-05-19 07:44:00,
2013-05-19 03:49:00,55.9,50.5,30.33,East,90,0.0,0.0,82,0.00,,OVC024,47.27,VWS V14.01,2013-05-19 07:49:00,
2013-05-19 03:54:00,55.6,50.2,30.33,North,0,0.0,0.0,82,0.00,,OVC018,47.27,VWS V14.01,2013-05-19 07:54:00,
2013-05-19 03:59:00,55.6,50.5,30.33,North,0,0.0,0.0,83,0.00,,OVC018,47.27,VWS V14.01,2013-05-19 07:59:00,
2013-05-19 04:04:00,55.4,50.3,30.33,East,90,0.0,0.0,83,0.00,,OVC018,47.27,VWS V14.01,2013-05-19 08:04:00,
2013-05-19 04:09:00,55.2,50.8,30.33,NE,45,0.0,0.0,85,0.00,,OVC018,47.27,VWS V14.01,2013-05-19 08:09:00,
2013-05-19 04:14:00,55.2,51.1,30.33,NE,45,0.0,0.0,86,0.00,,OVC018,47.27,VWS V14.01,2013-05-19 08:14:00,
2013-05-19 04:19:00,54.9,50.8,30.33,NE,45,0.0,0.0,86,0.00,,OVC018,47.27,VWS V14.01,2013-05-19 08:19:00,
2013-05-19 04:24:00,54.9,51.1,30.33,North,0,0.0,0.0,87,0.00,,OVC018,47.27,VWS V14.01,2013-05-19 08:24:00,
2013-05-19 04:29:00,54.9,51.4,30.33,North,0,0.0,0.0,88,0.00,,OVC018,47.27,VWS V14.01,2013-05-19 08:29:00,
2013-05-19 04:34:00,54.7,51.2,30.33,North,0,0.0,0.0,88,0.00,,OVC018,47.27,VWS V14.01,2013-05-19 08:34:00,
2013-05-19 04:39:00,54.7,51.5,30.33,North,0,0.0,0.0,89,0.04,,OVC018,47.31,VWS V14.01,2013-05-19 08:39:00,
2013-05-19 04:44:00,54.5,51.3,30.33,North,0,0.0,0.0,89,0.04,,OVC018,47.31,VWS V14.01,2013-05-19 08:44:00,
2013-05-19 04:49:00,54.5,51.6,30.33,NE,45,0.0,0.0,90,0.04,,OVC018,47.31,VWS V14.01,2013-05-19 08:49:00,
2013-05-19 04:55:00,54.5,51.6,30.30,NE,45,0.0,0.0,90,0.04,,-RA,47.31,VWS V14.01,2013-05-19 08:55:00,
2013-05-19 05:00:00,54.5,51.6,30.30,NE,45,0.0,0.0,90,0.04,,-RA,47.31,VWS V14.01,2013-05-19 09:00:00,
2013-05-19 05:05:00,54.5,51.9,30.30,NE,45,0.0,0.0,91,0.08,,-RA,47.35,VWS V14.01,2013-05-19 09:05:00,
2013-05-19 05:10:00,54.5,51.9,30.33,NNE,22,0.0,0.0,91,0.08,,-RA,47.35,VWS V14.01,2013-05-19 09:10:00,
2013-05-19 05:15:00,54.5,52.2,30.33,NE,45,0.0,0.0,92,0.08,,-RA,47.35,VWS V14.01,2013-05-19 09:15:00,
2013-05-19 05:20:00,54.5,52.2,30.33,NE,45,0.0,0.0,92,0.08,,-RA,47.35,VWS V14.01,2013-05-19 09:20:00,
2013-05-19 05:25:00,54.5,52.2,30.33,ENE,68,0.0,0.0,92,0.12,,-RA,47.39,VWS V14.01,2013-05-19 09:25:00,
2013-05-19 05:30:00,54.5,52.2,30.33,ENE,68,0.0,0.0,92,0.12,,-RA,47.39,VWS V14.01,2013-05-19 09:30:00,
2013-05-19 05:35:00,54.5,52.5,30.33,NE,45,0.0,0.0,93,0.12,,-RA,47.39,VWS V14.01,2013-05-19 09:35:00,
2013-05-19 05:40:00,54.5,52.5,30.33,NE,45,0.0,0.0,93,0.08,,-RA,47.39,VWS V14.01,2013-05-19 09:40:00,
2013-05-19 05:45:00,54.5,52.8,30.33,ENE,68,0.0,0.0,94,0.08,,-RA,47.39,VWS V14.01,2013-05-19 09:45:00,
2013-05-19 05:50:00,54.7,53.0,30.33,East,90,0.0,0.0,94,0.08,,-RA,47.39,VWS V14.01,2013-05-19 09:50:00,
2013-05-19 05:55:00,54.7,53.0,30.33,ENE,68,0.0,0.0,94,0.08,,OVC014,47.39,VWS V14.01,2013-05-19 09:55:00,
2013-05-19 06:00:00,54.7,53.0,30.33,ENE,68,0.0,0.0,94,0.08,,OVC014,47.39,VWS V14.01,2013-05-19 10:00:00,
2013-05-19 06:05:00,54.7,53.3,30.33,ENE,68,0.0,0.0,95,0.04,,OVC014,47.39,VWS V14.01,2013-05-19 10:05:00,
2013-05-19 06:10:00,54.9,53.5,30.33,East,90,0.0,0.0,95,0.04,,OVC014,47.39,VWS V14.01,2013-05-19 10:10:00,
2013-05-19 06:15:00,54.9,53.5,30.33,East,90,0.0,0.0,95,0.04,,OVC014,47.39,VWS V14.01,2013-05-19 10:15:00,
2013-05-19 06:20:00,54.9,53.5,30.33,East,90,0.0,0.0,95,0.08,,OVC014,47.43,VWS V14.01,2013-05-19 10:20:00,
2013-05-19 06:25:00,54.9,53.5,30.33,ENE,68,0.0,0.0,95,0.04,,OVC014,47.43,VWS V14.01,2013-05-19 10:25:00,
2013-05-19 06:30:00,54.9,53.7,30.33,ENE,68,0.0,0.0,96,0.04,,OVC014,47.43,VWS V14.01,2013-05-19 10:30:00,
2013-05-19 06:35:00,54.9,53.7,30.33,ENE,68,3.1,3.1,96,0.04,,OVC014,47.43,VWS V14.01,2013-05-19 10:35:00,
2013-05-19 06:40:00,54.7,53.6,30.33,NE,45,0.0,0.0,96,0.04,,OVC014,47.43,VWS V14.01,2013-05-19 10:40:00,
2013-05-19 06:45:00,54.7,53.6,30.33,East,90,0.0,0.0,96,0.04,,OVC014,47.43,VWS V14.01,2013-05-19 10:45:00,
2013-05-19 06:50:00,54.7,53.6,30.33,NE,45,0.0,4.9,96,0.04,,-RA,47.43,VWS V14.01,2013-05-19 10:50:00,
2013-05-19 06:55:00,54.7,53.6,30.33,East,90,0.0,3.1,96,0.04,,-RA,47.43,VWS V14.01,2013-05-19 10:55:00,
2013-05-19 07:00:00,54.7,53.8,30.33,North,0,0.0,0.0,97,0.04,,-RA,47.43,VWS V14.01,2013-05-19 11:00:00,
2013-05-19 07:05:00,54.9,54.0,30.33,NE,45,2.7,2.7,97,0.04,,-RA,47.43,VWS V14.01,2013-05-19 11:05:00,
2013-05-19 07:11:00,54.9,54.0,30.33,ENE,68,0.0,0.0,97,0.04,,-RA,47.43,VWS V14.01,2013-05-19 11:11:00,
2013-05-19 07:16:00,54.9,54.0,30.33,East,90,0.0,0.0,97,0.04,,-RA,47.43,VWS V14.01,2013-05-19 11:16:00,
2013-05-19 07:21:00,54.9,54.0,30.33,East,90,0.0,0.0,97,0.00,,-RA,47.43,VWS V14.01,2013-05-19 11:21:00,
2013-05-19 07:26:00,55.0,54.2,30.36,ENE,68,0.0,0.0,97,0.00,,-RA,47.43,VWS V14.01,2013-05-19 11:26:00,
2013-05-19 07:31:00,55.0,54.2,30.36,East,90,0.0,0.0,97,0.00,,-RA,47.43,VWS V14.01,2013-05-19 11:31:00,
2013-05-19 07:36:00,55.0,54.2,30.36,East,90,0.0,0.0,97,0.00,,-RA,47.43,VWS V14.01,2013-05-19 11:36:00,
2013-05-19 07:41:00,55.0,54.2,30.36,SE,135,0.0,2.7,97,0.00,,-RA,47.43,VWS V14.01,2013-05-19 11:41:00,
2013-05-19 07:46:00,55.0,54.2,30.36,NW,315,0.0,0.0,97,0.00,,-RA,47.43,VWS V14.01,2013-05-19 11:46:00,
2013-05-19 07:51:00,55.2,54.4,30.36,NNW,338,0.0,0.0,97,0.00,,-RA,47.43,VWS V14.01,2013-05-19 11:51:00,
2013-05-19 07:56:00,55.2,54.4,30.39,East,90,0.0,0.0,97,0.00,,-RA,47.43,VWS V14.01,2013-05-19 11:56:00,
2013-05-19 08:01:00,55.2,54.4,30.39,East,90,0.0,0.0,97,0.00,,-RA,47.43,VWS V14.01,2013-05-19 12:01:00,
2013-05-19 08:06:00,55.4,54.6,30.39,East,90,0.0,0.0,97,0.00,,-RA,47.43,VWS V14.01,2013-05-19 12:06:00,
2013-05-19 08:11:00,55.6,54.8,30.39,NE,45,0.0,0.0,97,0.00,,-RA,47.43,VWS V14.01,2013-05-19 12:11:00,
2013-05-19 08:16:00,55.6,54.8,30.39,NE,45,0.0,0.0,97,0.00,,-RA,47.43,VWS V14.01,2013-05-19 12:16:00,
2013-05-19 08:21:00,55.6,54.8,30.39,NE,45,0.0,0.0,97,0.00,,-RA,47.43,VWS V14.01,2013-05-19 12:21:00,
2013-05-19 08:26:00,55.6,54.8,30.39,East,90,0.0,0.0,97,0.00,,-RA,47.43,VWS V14.01,2013-05-19 12:26:00,
2013-05-19 08:31:00,55.6,54.8,30.39,East,90,0.0,0.0,97,0.00,,-RA,47.43,VWS V14.01,2013-05-19 12:31:00,
2013-05-19 08:36:00,55.8,54.9,30.39,ENE,68,0.0,0.0,97,0.00,,-RA,47.43,VWS V14.01,2013-05-19 12:36:00,
2013-05-19 09:03:00,55.9,55.1,30.39,NE,45,0.0,0.0,97,0.00,,-RA,47.43,VWS V14.01,2013-05-19 13:03:00,
2013-05-19 09:56:00,56.3,55.5,30.41,NNE,22,0.0,0.0,97,0.05,,-RA,47.48,VWS V14.01,2013-05-19 13:56:00,
2013-05-19 10:01:00,56.5,55.6,30.41,SE,135,0.0,1.8,97,0.05,,-RA,47.48,VWS V14.01,2013-05-19 14:01:00,
2013-05-19 10:06:00,56.3,55.5,30.41,ESE,112,0.0,0.0,97,0.05,,-RA,47.48,VWS V14.01,2013-05-19 14:06:00,
2013-05-19 10:11:00,56.3,55.5,30.39,ENE,68,0.0,0.0,97,0.05,,-RA,47.48,VWS V14.01,2013-05-19 14:11:00,
2013-05-19 10:16:00,56.5,55.6,30.39,ENE,68,4.0,4.0,97,0.05,,-RA,47.48,VWS V14.01,2013-05-19 14:16:00,
2013-05-19 10:21:00,56.5,55.6,30.39,ESE,112,6.3,6.3,97,0.05,,-RA,47.48,VWS V14.01,2013-05-19 14:21:00,
2013-05-19 10:26:00,56.7,55.8,30.39,SSW,202,5.4,5.4,97,0.05,,-RA,47.48,VWS V14.01,2013-05-19 14:26:00,
2013-05-19 10:31:00,56.7,56.1,30.39,East,90,0.0,0.0,98,0.05,,-RA,47.48,VWS V14.01,2013-05-19 14:31:00,
2013-05-19 10:36:00,56.8,56.3,30.39,East,90,1.8,4.5,98,0.05,,-RA,47.48,VWS V14.01,2013-05-19 14:36:00,
2013-05-19 10:41:00,56.8,56.3,30.36,NE,45,5.4,5.4,98,0.00,,-RA,47.48,VWS V14.01,2013-05-19 14:41:00,
2013-05-19 10:46:00,57.0,56.5,30.36,ESE,112,0.0,0.0,98,0.00,,-RA,47.48,VWS V14.01,2013-05-19 14:46:00,
2013-05-19 10:51:00,57.2,56.4,30.36,NNE,22,0.0,0.0,97,0.00,,,47.48,VWS V14.01,2013-05-19 14:51:00,
2013-05-19 10:56:00,57.6,57.0,30.39,NE,45,0.0,0.0,98,0.00,,,47.48,VWS V14.01,2013-05-19 14:56:00,
2013-05-19 11:01:00,57.7,56.9,30.39,ESE,112,0.0,0.0,97,0.00,,,47.48,VWS V14.01,2013-05-19 15:01:00,
2013-05-19 11:06:00,57.7,56.9,30.39,SE,135,0.0,0.0,97,0.00,,,47.48,VWS V14.01,2013-05-19 15:06:00,
2013-05-19 11:11:00,57.7,56.9,30.39,ESE,112,0.0,0.0,97,0.00,,,47.48,VWS V14.01,2013-05-19 15:11:00,
2013-05-19 11:16:00,57.7,56.9,30.39,East,90,0.0,0.0,97,0.00,,,47.48,VWS V14.01,2013-05-19 15:16:00,
2013-05-19 11:21:00,57.7,56.9,30.39,ENE,68,0.0,0.0,97,0.00,,,47.48,VWS V14.01,2013-05-19 15:21:00,
2013-05-19 11:27:00,57.7,56.6,30.39,East,90,0.0,0.0,96,0.00,,,47.48,VWS V14.01,2013-05-19 15:27:00,
2013-05-19 11:32:00,57.9,56.8,30.39,NE,45,0.0,0.0,96,0.00,,,47.48,VWS V14.01,2013-05-19 15:32:00,
2013-05-19 11:37:00,57.7,56.6,30.39,East,90,0.0,1.8,96,0.00,,,47.48,VWS V14.01,2013-05-19 15:37:00,
2013-05-19 11:42:00,57.7,56.6,30.39,East,90,0.0,3.1,96,0.00,,,47.48,VWS V14.01,2013-05-19 15:42:00,
2013-05-19 11:47:00,57.6,56.1,30.39,SE,135,0.0,0.0,95,0.00,,,47.48,VWS V14.01,2013-05-19 15:47:00,
2013-05-19 11:52:00,57.6,56.1,30.39,East,90,0.0,0.0,95,0.00,,-RA,47.48,VWS V14.01,2013-05-19 15:52:00,
2013-05-19 11:57:00,57.6,56.4,30.39,NE,45,0.0,4.0,96,0.00,,-RA,47.48,VWS V14.01,2013-05-19 15:57:00,
2013-05-19 12:02:00,57.6,56.4,30.39,ENE,68,0.0,0.0,96,0.00,,-RA,47.48,VWS V14.01,2013-05-19 16:02:00,
2013-05-19 12:07:00,57.7,56.6,30.39,NE,45,4.5,4.5,96,0.00,,-RA,47.48,VWS V14.01,2013-05-19 16:07:00,
2013-05-19 12:12:00,57.7,56.6,30.39,NE,45,0.0,0.0,96,0.00,,-RA,47.48,VWS V14.01,2013-05-19 16:12:00,
2013-05-19 12:17:00,57.7,56.6,30.39,SE,135,0.0,4.9,96,0.00,,-RA,47.48,VWS V14.01,2013-05-19 16:17:00,
2013-05-19 12:22:00,57.6,56.4,30.39,ENE,68,0.0,0.0,96,0.00,,-RA,47.48,VWS V14.01,2013-05-19 16:22:00,
2013-05-19 12:27:00,57.7,56.6,30.36,East,90,3.1,4.0,96,0.00,,-RA,47.48,VWS V14.01,2013-05-19 16:27:00,
2013-05-19 12:32:00,57.7,56.6,30.36,ENE,68,0.0,0.0,96,0.00,,-RA,47.48,VWS V14.01,2013-05-19 16:32:00,
2013-05-19 12:37:00,57.7,56.6,30.36,ENE,68,0.0,2.2,96,0.00,,-RA,47.48,VWS V14.01,2013-05-19 16:37:00,
2013-05-19 12:42:00,57.9,56.8,30.39,East,90,0.0,3.1,96,0.04,,-RA,47.52,VWS V14.01,2013-05-19 16:42:00,
2013-05-19 12:47:00,57.9,56.8,30.39,East,90,0.0,0.0,96,0.04,,-RA,47.52,VWS V14.01,2013-05-19 16:47:00,
2013-05-19 12:52:00,57.9,56.8,30.39,NNE,22,0.0,0.0,96,0.04,,OVC015,47.52,VWS V14.01,2013-05-19 16:52:00,
2013-05-19 12:57:00,57.9,56.8,30.36,ENE,68,0.0,0.0,96,0.04,,OVC015,47.52,VWS V14.01,2013-05-19 16:57:00,
2013-05-19 13:02:00,58.1,57.0,30.36,NE,45,0.0,0.0,96,0.04,,OVC015,47.52,VWS V14.01,2013-05-19 17:02:00,
2013-05-19 13:07:00,58.1,57.0,30.36,East,90,1.8,1.8,96,0.04,,OVC015,47.52,VWS V14.01,2013-05-19 17:07:00,
2013-05-19 13:12:00,58.1,57.0,30.36,East,90,4.9,4.9,96,0.04,,OVC015,47.52,VWS V14.01,2013-05-19 17:12:00,
2013-05-19 13:17:00,58.1,57.0,30.36,ENE,68,0.0,0.0,96,0.04,,OVC015,47.52,VWS V14.01,2013-05-19 17:17:00,
2013-05-19 13:22:00,58.1,57.0,30.33,NNE,22,0.0,0.0,96,0.04,,-RA,47.52,VWS V14.01,2013-05-19 17:22:00,
2013-05-19 13:28:00,58.3,57.2,30.33,NNE,22,0.0,2.2,96,0.04,,-RA,47.52,VWS V14.01,2013-05-19 17:28:00,
2013-05-19 13:33:00,58.3,57.2,30.33,NE,45,0.0,0.0,96,0.04,,OVC015,47.52,VWS V14.01,2013-05-19 17:33:00,
2013-05-19 13:38:00,58.3,57.2,30.33,East,90,1.8,5.8,96,0.04,,OVC015,47.52,VWS V14.01,2013-05-19 17:38:00,
2013-05-19 13:43:00,58.3,57.2,30.33,NNE,22,0.0,4.9,96,0.00,,OVC015,47.52,VWS V14.01,2013-05-19 17:43:00,
2013-05-19 13:48:00,58.5,57.3,30.33,NNW,338,0.0,0.0,96,0.00,,OVC015,47.52,VWS V14.01,2013-05-19 17:48:00,
2013-05-19 13:53:00,58.6,57.5,30.33,NNE,22,3.1,3.1,96,0.00,,-RA,47.52,VWS V14.01,2013-05-19 17:53:00,
2013-05-19 13:58:00,58.8,57.7,30.33,NNW,338,0.0,3.1,96,0.00,,-RA,47.52,VWS V14.01,2013-05-19 17:58:00,
2013-05-19 14:03:00,58.8,57.7,30.33,NNE,22,0.0,4.0,96,0.00,,-RA,47.52,VWS V14.01,2013-05-19 18:03:00,
2013-05-19 14:08:00,59.0,57.9,30.33,West,270,4.5,4.5,96,0.00,,-RA,47.52,VWS V14.01,2013-05-19 18:08:00,
2013-05-19 14:13:00,59.2,58.0,30.33,NNW,338,2.7,5.4,96,0.00,,-RA,47.52,VWS V14.01,2013-05-19 18:13:00,
2013-05-19 14:18:00,59.5,58.1,30.33,North,0,1.8,3.1,95,0.00,,-RA,47.52,VWS V14.01,2013-05-19 18:18:00,
2013-05-19 14:23:00,59.7,58.3,30.33,East,90,0.0,0.0,95,0.00,,-RA,47.52,VWS V14.01,2013-05-19 18:23:00,
2013-05-19 14:28:00,59.5,57.8,30.33,ENE,68,2.7,2.7,94,0.00,,-RA,47.52,VWS V14.01,2013-05-19 18:28:00,
2013-05-19 14:33:00,59.5,57.8,30.33,SE,135,0.0,0.0,94,0.00,,-RA,47.52,VWS V14.01,2013-05-19 18:33:00,
2013-05-19 14:38:00,59.5,57.8,30.33,NE,45,0.0,4.5,94,0.00,,-RA,47.52,VWS V14.01,2013-05-19 18:38:00,
2013-05-19 14:43:00,59.5,57.5,30.33,ESE,112,2.2,6.7,93,0.00,,-RA,47.52,VWS V14.01,2013-05-19 18:43:00,
2013-05-19 14:48:00,59.4,57.3,30.33,South,180,4.0,7.2,93,0.00,,-RA,47.52,VWS V14.01,2013-05-19 18:48:00,
2013-05-19 14:53:00,59.4,57.3,30.33,NW,315,2.2,2.2,93,0.00,,-RA,47.52,VWS V14.01,2013-05-19 18:53:00,
2013-05-19 14:58:00,59.2,56.9,30.33,ENE,68,2.2,8.5,92,0.00,,-RA,47.52,VWS V14.01,2013-05-19 18:58:00,
2013-05-19 15:03:00,59.2,56.9,30.33,NW,315,2.2,6.3,92,0.00,,OVC018,47.52,VWS V14.01,2013-05-19 19:03:00,
2013-05-19 15:08:00,59.2,56.9,30.30,ESE,112,0.0,3.1,92,0.00,,OVC018,47.52,VWS V14.01,2013-05-19 19:08:00,
2013-05-19 15:13:00,59.0,56.7,30.30,SE,135,2.7,2.7,92,0.00,,OVC018,47.52,VWS V14.01,2013-05-19 19:13:00,
2013-05-19 15:18:00,58.8,56.8,30.30,East,90,2.2,3.1,93,0.00,,OVC018,47.52,VWS V14.01,2013-05-19 19:18:00,
2013-05-19 15:23:00,58.8,56.8,30.30,East,90,0.0,5.4,93,0.00,,OVC018,47.52,VWS V14.01,2013-05-19 19:23:00,
2013-05-19 15:28:00,58.8,56.8,30.30,NNW,338,0.0,3.1,93,0.00,,OVC018,47.52,VWS V14.01,2013-05-19 19:28:00,
2013-05-19 15:33:00,58.8,56.8,30.30,SSE,158,2.2,4.0,93,0.00,,OVC018,47.52,VWS V14.01,2013-05-19 19:33:00,
2013-05-19 15:38:00,58.6,56.6,30.30,ENE,68,0.0,4.5,93,0.00,,OVC018,47.52,VWS V14.01,2013-05-19 19:38:00,
2013-05-19 15:43:00,58.6,56.6,30.30,NNE,22,0.0,3.1,93,0.00,,OVC017,47.52,VWS V14.01,2013-05-19 19:43:00,
2013-05-19 15:48:00,58.5,56.5,30.30,NE,45,0.0,6.7,93,0.00,,OVC017,47.52,VWS V14.01,2013-05-19 19:48:00,
2013-05-19 15:53:00,58.5,56.5,30.30,East,90,0.0,4.0,93,0.00,,OVC017,47.52,VWS V14.01,2013-05-19 19:53:00,
2013-05-19 15:58:00,58.5,56.7,30.30,NE,45,0.0,2.2,94,0.00,,OVC017,47.52,VWS V14.01,2013-05-19 19:58:00,
2013-05-19 16:03:00,58.5,56.7,30.30,NE,45,4.0,4.0,94,0.00,,OVC017,47.52,VWS V14.01,2013-05-19 20:03:00,
2013-05-19 16:08:00,58.3,56.6,30.27,NE,45,0.0,4.0,94,0.00,,OVC017,47.52,VWS V14.01,2013-05-19 20:08:00,
2013-05-19 16:13:00,58.3,56.6,30.27,East,90,0.0,0.0,94,0.00,,OVC017,47.52,VWS V14.01,2013-05-19 20:13:00,
2013-05-19 16:18:00,58.3,56.6,30.27,South,180,3.1,4.9,94,0.00,,OVC017,47.52,VWS V14.01,2013-05-19 20:18:00,
2013-05-19 16:23:00,58.3,56.6,30.27,ENE,68,0.0,0.0,94,0.00,,OVC017,47.52,VWS V14.01,2013-05-19 20:23:00,
2013-05-19 16:28:00,58.3,56.6,30.27,NE,45,0.0,2.2,94,0.00,,OVC017,47.52,VWS V14.01,2013-05-19 20:28:00,
2013-05-19 16:33:00,58.3,56.6,30.27,North,0,0.0,0.0,94,0.00,,OVC017,47.52,VWS V14.01,2013-05-19 20:33:00,
2013-05-19 16:38:00,58.3,56.6,30.27,East,90,4.0,5.4,94,0.00,,OVC017,47.52,VWS V14.01,2013-05-19 20:38:00,
2013-05-19 16:43:00,58.3,56.6,30.27,North,0,0.0,4.0,94,0.00,,OVC017,47.52,VWS V14.01,2013-05-19 20:43:00,
2013-05-19 16:48:00,58.3,56.6,30.27,ENE,68,0.0,4.0,94,0.00,,OVC017,47.52,VWS V14.01,2013-05-19 20:48:00,
2013-05-19 16:53:00,58.3,56.6,30.27,East,90,0.0,2.2,94,0.00,,OVC017,47.52,VWS V14.01,2013-05-19 20:53:00,
2013-05-19 16:58:00,58.3,56.9,30.27,East,90,4.0,4.0,95,0.00,,OVC017,47.52,VWS V14.01,2013-05-19 20:58:00,
2013-05-19 17:03:00,58.5,57.0,30.27,ENE,68,0.0,0.0,95,0.00,,OVC017,47.52,VWS V14.01,2013-05-19 21:03:00,
2013-05-19 17:08:00,58.5,57.0,30.27,North,0,0.0,2.7,95,0.00,,OVC017,47.52,VWS V14.01,2013-05-19 21:08:00,
2013-05-19 17:13:00,58.5,57.0,30.27,NE,45,5.4,5.4,95,0.00,,OVC017,47.52,VWS V14.01,2013-05-19 21:13:00,
2013-05-19 17:18:00,58.5,57.0,30.27,SE,135,1.8,3.1,95,0.00,,OVC017,47.52,VWS V14.01,2013-05-19 21:18:00,
2013-05-19 17:23:00,58.5,57.0,30.24,ESE,112,0.0,2.2,95,0.00,,OVC017,47.52,VWS V14.01,2013-05-19 21:23:00,
2013-05-19 17:28:00,58.6,57.2,30.24,ESE,112,4.0,4.0,95,0.00,,OVC017,47.52,VWS V14.01,2013-05-19 21:28:00,
2013-05-19 17:33:00,58.6,57.2,30.24,East,90,5.4,5.4,95,0.00,,OVC017,47.52,VWS V14.01,2013-05-19 21:33:00,
2013-05-19 17:38:00,58.6,57.2,30.24,East,90,0.0,6.3,95,0.00,,OVC017,47.52,VWS V14.01,2013-05-19 21:38:00,
2013-05-19 17:43:00,58.8,57.4,30.24,NE,45,3.1,3.1,95,0.00,,OVC017,47.52,VWS V14.01,2013-05-19 21:43:00,
2013-05-19 17:48:00,58.6,57.2,30.24,SE,135,2.7,2.7,95,0.00,,OVC017,47.52,VWS V14.01,2013-05-19 21:48:00,
2013-05-19 17:53:00,58.6,57.2,30.24,ENE,68,0.0,0.0,95,0.00,,OVC017,47.52,VWS V14.01,2013-05-19 21:53:00,
2013-05-19 17:58:00,58.6,57.2,30.24,NE,45,0.0,0.0,95,0.00,,OVC017,47.52,VWS V14.01,2013-05-19 21:58:00,
2013-05-19 18:03:00,58.6,57.2,30.24,SE,135,1.8,4.5,95,0.00,,OVC017,47.52,VWS V14.01,2013-05-19 22:03:00,
2013-05-19 18:08:00,58.6,57.2,30.21,ENE,68,0.0,0.0,95,0.00,,OVC017,47.52,VWS V14.01,2013-05-19 22:08:00,
2013-05-19 18:13:00,58.6,57.2,30.21,North,0,0.0,0.0,95,0.00,,OVC017,47.52,VWS V14.01,2013-05-19 22:13:00,
2013-05-19 18:18:00,58.5,57.0,30.21,East,90,6.3,6.3,95,0.00,,OVC017,47.52,VWS V14.01,2013-05-19 22:18:00,
2013-05-19 18:23:00,58.5,57.0,30.21,SSE,158,0.0,0.0,95,0.00,,OVC017,47.52,VWS V14.01,2013-05-19 22:23:00,
2013-05-19 18:28:00,58.3,56.9,30.21,East,90,0.0,6.3,95,0.00,,OVC017,47.52,VWS V14.01,2013-05-19 22:28:00,
2013-05-19 18:33:00,58.3,56.9,30.21,NE,45,0.0,2.7,95,0.00,,OVC017,47.52,VWS V14.01,2013-05-19 22:33:00,
2013-05-19 18:38:00,58.3,56.9,30.21,ENE,68,0.0,3.1,95,0.00,,OVC017,47.52,VWS V14.01,2013-05-19 22:38:00,
2013-05-19 18:44:00,58.3,56.9,30.21,NNE,22,0.0,0.0,95,0.00,,OVC020,47.52,VWS V14.01,2013-05-19 22:44:00,
2013-05-19 18:49:00,58.3,56.9,30.21,ESE,112,2.2,4.9,95,0.00,,OVC020,47.52,VWS V14.01,2013-05-19 22:49:00,
2013-05-19 18:54:00,58.3,56.9,30.21,North,0,0.0,0.0,95,0.00,,OVC020,47.52,VWS V14.01,2013-05-19 22:54:00,
2013-05-19 18:59:00,58.3,56.9,30.21,North,0,0.0,0.0,95,0.00,,OVC020,47.52,VWS V14.01,2013-05-19 22:59:00,
2013-05-19 19:04:00,58.3,56.9,30.21,NNW,338,0.0,0.0,95,0.00,,OVC020,47.52,VWS V14.01,2013-05-19 23:04:00,
2013-05-19 19:09:00,58.3,56.9,30.21,North,0,0.0,0.0,95,0.00,,OVC020,0.00,VWS V14.01,2013-05-19 23:09:00,
2013-05-19 19:14:00,58.1,56.7,30.21,North,0,0.0,0.0,95,0.00,,OVC020,47.52,VWS V14.01,2013-05-19 23:14:00,
2013-05-19 19:19:00,58.1,56.7,30.21,NNE,22,0.0,0.0,95,0.00,,OVC020,47.52,VWS V14.01,2013-05-19 23:19:00,
2013-05-19 19:24:00,58.1,56.7,30.18,NNE,22,4.5,4.5,95,0.00,,OVC020,47.52,VWS V14.01,2013-05-19 23:24:00,
2013-05-19 19:29:00,58.1,56.7,30.18,North,0,0.0,0.0,95,0.00,,OVC020,47.52,VWS V14.01,2013-05-19 23:29:00,
2013-05-19 19:34:00,57.9,56.5,30.18,NNW,338,0.0,0.0,95,0.00,,OVC020,47.52,VWS V14.01,2013-05-19 23:34:00,
2013-05-19 19:39:00,57.9,56.5,30.21,North,0,0.0,0.0,95,0.00,,OVC020,47.52,VWS V14.01,2013-05-19 23:39:00,
2013-05-19 19:44:00,57.9,56.5,30.21,North,0,0.0,0.0,95,0.00,,OVC020,47.52,VWS V14.01,2013-05-19 23:44:00,
2013-05-19 19:49:00,57.7,56.6,30.21,North,0,0.0,0.0,96,0.00,,OVC020,47.52,VWS V14.01,2013-05-19 23:49:00,
2013-05-19 19:54:00,57.7,56.6,30.21,NE,45,1.8,2.2,96,0.00,,OVC020,47.52,VWS V14.01,2013-05-19 23:54:00,
2013-05-19 19:59:00,57.6,56.4,30.21,NE,45,0.0,0.0,96,0.00,,OVC020,47.52,VWS V14.01,2013-05-19 23:59:00,
2013-05-19 20:04:00,57.6,56.4,30.21,North,0,0.0,0.0,96,0.00,,OVC021,47.52,VWS V14.01,2013-05-20 00:04:00,
2013-05-19 20:09:00,57.6,56.4,30.21,North,0,0.0,0.0,96,0.00,,OVC021,47.52,VWS V14.01,2013-05-20 00:09:00,
2013-05-19 20:14:00,57.4,56.2,30.21,NE,45,0.0,0.0,96,0.00,,OVC015,47.52,VWS V14.01,2013-05-20 00:14:00,
2013-05-19 20:19:00,57.4,56.2,30.21,ENE,68,4.0,4.0,96,0.00,,OVC015,47.52,VWS V14.01,2013-05-20 00:19:00,
2013-05-19 20:24:00,57.4,56.2,30.21,North,0,0.0,0.0,96,0.00,,OVC021,47.52,VWS V14.01,2013-05-20 00:24:00,
2013-05-19 20:29:00,57.4,56.2,30.21,East,90,0.0,0.0,96,0.00,,OVC021,47.52,VWS V14.01,2013-05-20 00:29:00,
2013-05-19 20:34:00,57.4,56.2,30.21,ENE,68,0.0,0.0,96,0.00,,OVC021,47.52,VWS V14.01,2013-05-20 00:34:00,
2013-05-19 20:39:00,57.2,56.4,30.24,East,90,4.9,4.9,97,0.00,,OVC021,47.52,VWS V14.01,2013-05-20 00:39:00,
2013-05-19 20:44:00,57.2,56.4,30.24,East,90,0.0,0.0,97,0.00,,OVC021,47.52,VWS V14.01,2013-05-20 00:44:00,
2013-05-19 20:49:00,57.2,56.4,30.24,North,0,0.0,0.0,97,0.00,,OVC021,47.52,VWS V14.01,2013-05-20 00:49:00,
2013-05-19 20:54:00,57.2,56.4,30.21,East,90,1.8,5.4,97,0.00,,OVC015,47.52,VWS V14.01,2013-05-20 00:54:00,
2013-05-19 20:59:00,57.2,56.4,30.21,East,90,0.0,0.0,97,0.00,,OVC015,47.52,VWS V14.01,2013-05-20 00:59:00,
2013-05-19 21:04:00,57.0,56.2,30.21,ENE,68,0.0,4.9,97,0.00,,OVC015,47.52,VWS V14.01,2013-05-20 01:04:00,
2013-05-19 21:09:00,57.0,56.5,30.21,ENE,68,0.0,5.4,98,0.00,,OVC015,47.52,VWS V14.01,2013-05-20 01:09:00,
2013-05-19 21:14:00,57.0,56.5,30.21,East,90,0.0,0.0,98,0.00,,OVC015,47.52,VWS V14.01,2013-05-20 01:14:00,
2013-05-19 21:20:00,57.0,56.5,30.21,NE,45,5.4,5.4,98,0.00,,OVC015,47.52,VWS V14.01,2013-05-20 01:20:00,
2013-05-19 21:25:00,57.0,56.5,30.21,SE,135,3.1,5.4,98,0.00,,OVC015,47.52,VWS V14.01,2013-05-20 01:25:00,
2013-05-19 21:30:00,57.0,56.5,30.21,ESE,112,2.2,4.0,98,0.00,,OVC015,47.52,VWS V14.01,2013-05-20 01:30:00,
2013-05-19 21:35:00,56.8,56.3,30.21,ESE,112,1.8,1.8,98,0.00,,OVC015,47.52,VWS V14.01,2013-05-20 01:35:00,
2013-05-19 21:40:00,56.8,56.3,30.21,ESE,112,0.0,5.4,98,0.00,,OVC015,47.52,VWS V14.01,2013-05-20 01:40:00,
2013-05-19 21:45:00,56.8,56.3,30.21,East,90,1.8,2.2,98,0.00,,OVC015,47.52,VWS V14.01,2013-05-20 01:45:00,
2013-05-19 21:50:00,56.8,56.3,30.21,ENE,68,0.0,0.0,98,0.00,,OVC015,47.52,VWS V14.01,2013-05-20 01:50:00,
2013-05-19 21:55:00,56.8,56.3,30.18,ENE,68,0.0,0.0,98,0.00,,OVC013,47.52,VWS V14.01,2013-05-20 01:55:00,
2013-05-19 22:00:00,56.8,56.3,30.18,SE,135,0.0,2.7,98,0.00,,OVC013,47.52,VWS V14.01,2013-05-20 02:00:00,
2013-05-19 22:05:00,56.8,56.3,30.18,NNE,22,1.8,1.8,98,0.00,,OVC013,47.52,VWS V14.01,2013-05-20 02:05:00,
2013-05-19 22:10:00,56.8,56.3,30.21,East,90,0.0,0.0,98,0.00,,OVC013,47.52,VWS V14.01,2013-05-20 02:10:00,
2013-05-19 22:15:00,56.8,56.3,30.21,NE,45,0.0,0.0,98,0.00,,OVC013,47.52,VWS V14.01,2013-05-20 02:15:00,
2013-05-19 22:20:00,56.8,56.3,30.21,NE,45,5.4,7.2,98,0.00,,OVC013,47.52,VWS V14.01,2013-05-20 02:20:00,
2013-05-19 22:25:00,56.8,56.3,30.21,SE,135,1.8,7.6,98,0.00,,OVC013,47.52,VWS V14.01,2013-05-20 02:25:00,
2013-05-19 22:30:00,56.8,56.3,30.21,NE,45,0.0,0.0,98,0.00,,OVC013,47.52,VWS V14.01,2013-05-20 02:30:00,
2013-05-19 22:35:00,56.8,56.3,30.21,NE,45,0.0,0.0,98,0.00,,OVC013,47.52,VWS V14.01,2013-05-20 02:35:00,
2013-05-19 22:40:00,56.8,56.3,30.21,North,0,0.0,0.0,98,0.00,,OVC013,47.52,VWS V14.01,2013-05-20 02:40:00,
2013-05-19 22:45:00,56.8,56.3,30.21,East,90,0.0,1.8,98,0.00,,OVC013,47.52,VWS V14.01,2013-05-20 02:45:00,
2013-05-19 22:50:00,56.8,56.3,30.21,East,90,2.7,5.4,98,0.00,,OVC013,47.52,VWS V14.01,2013-05-20 02:50:00,
2013-05-19 22:56:00,56.8,56.3,30.21,ESE,112,0.0,4.5,98,0.00,,OVC013,47.52,VWS V14.01,2013-05-20 02:56:00,
2013-05-19 23:01:00,56.8,56.3,30.21,SE,135,0.0,3.1,98,0.00,,OVC013,47.52,VWS V14.01,2013-05-20 03:01:00,
2013-05-19 23:06:00,56.8,56.3,30.21,ESE,112,0.0,0.0,98,0.00,,OVC013,47.52,VWS V14.01,2013-05-20 03:06:00,
2013-05-19 23:11:00,56.8,56.3,30.21,ESE,112,2.7,2.7,98,0.00,,OVC013,0.00,VWS V14.01,2013-05-20 03:11:00,
2013-05-19 23:16:00,56.8,56.3,30.21,NE,45,0.0,0.0,98,0.00,,OVC013,0.00,VWS V14.01,2013-05-20 03:16:00,
2013-05-19 23:21:00,56.7,56.1,30.21,SE,135,0.0,0.0,98,0.00,,OVC013,0.00,VWS V14.01,2013-05-20 03:21:00,
2013-05-19 23:26:00,56.7,56.1,30.21,SE,135,0.0,0.0,98,0.00,,OVC013,0.00,VWS V14.01,2013-05-20 03:26:00,
2013-05-19 23:31:00,56.7,56.1,30.21,WSW,248,0.0,0.0,98,0.00,,OVC013,0.00,VWS V14.01,2013-05-20 03:31:00,
2013-05-19 23:36:00,56.7,56.1,30.21,NNE,22,0.0,0.0,98,0.00,,OVC013,0.00,VWS V14.01,2013-05-20 03:36:00,
2013-05-19 23:41:00,56.7,56.1,30.21,East,90,0.0,0.0,98,0.00,,OVC013,0.00,VWS V14.01,2013-05-20 03:41:00,
2013-05-19 23:46:00,56.7,56.1,30.21,North,0,0.0,0.0,98,0.00,,OVC013,0.00,VWS V14.01,2013-05-20 03:46:00,
2013-05-19 23:51:00,56.7,56.1,30.21,ENE,68,0.0,0.0,98,0.00,,OVC013,0.00,VWS V14.01,2013-05-20 03:51:00,
2013-05-19 23:56:00,56.7,56.1,30.18,ENE,68,0.0,0.0,98,0.00,,OVC013,0.00,VWS V14.01,2013-05-20 03:56:00,